SCP
0 -0 -0 -0 -0 -0 -0 -0 -0 -0 -0 -0 -0 -0 -0 -0 -0 0 -0 -0 -0 -0 0 0 0 0 0 0 0 -0 -0 -0 0 0 0 0 0 0 0 0 0 0 0 0 0 0 0
0 -0 -0 -0 -0 -0 -0 -0 -0 -0 -0 -0 -0 -0 -0 0 0 0 0 0 0 0 0 -0 -0 0 0 0 -0 -0 0 0 0 0 0 0 0 0 0 0 0 0 0 0 0 0 0
-0 -0 -0 -0 -0 -0 -0 -0 -0 -0 -0 -0 -0 -0 -0 0 0 0 0 0 0 0 0 -0 -0 0 0 0 0 0 0 0 0 0 0 0 0 0 0 0 0 0 0 0 0 0 0
-0 -0 -0 -0 -0 -0 -0 -0 -0 -0 -0 -0 -0 -0 -0 0 0 -0 0 0 0 0 0 0 0 0 0 -0 0 0 0 -0 -0 0 0 -0 0 0 0 0 0 0 0 0 0 0 0
0 0 0 -0 -0 -0 -0 -0 -0 -0 -0 -0 -0 -0 -0 -0 0 -0 0 -0 0 0 -0 0 0 0 0 -0 0 0 0 0 0 0 0 0 0 0 0 0 0 0 0 0 0 0 0
0 0 0 0 -0 -0 -0 -0 -0 -0 -0 -0 -0 -0 -0 -0 -0 -0 -0 0 0 0 0 -0 -0 0 -0 0 0 0 0 0 0 0 0 0 0 0 0 0 0 0 0 0 0 0 0
0 0 0 0 0 -0 -0 -0 -0 -0 -0 -0 -0 -0 -0 -0 0 -0 0 0 0 0 0 0 0 0 0 -0 0 0 -0 0 0 0 0 0 0 0 0 0 0 0 0 0 0 0 0
-0 -0 -0 0 -0 -0 -0 -0 -0 -0 -0 -0 -0 -0 -0 -0 0 0 0 0 0 0 0 0 -0 0 0 0 0 0 0 0 0 0 0 0 0 0 0 0 0 0 0 0 0 0 0
-0 -0 -0 -0 -0 -0 -0 -0 -0 -0 -0 -0 -0 -0 -0 0 -0 0 0 0 -0 0 0 0 0 0 0 0 0 0 0 0 0 0 0 0 0 0 0 0 0 0 0 0 0 0 0
-0 -0 -0 -0 -0 -0 -0 -0 -0 -0 -0 -0 -0 0 0 -0 0 0 0 0 -0 0 0 0 0 0 0 0 0 0 0 0 0 0 0 0 0 0 0 0 0 0 0 0 0 0 0
-0 -0 -0 -0 -0 -0 -0 -0 -0 -0 -0 -0 -0 -0 0 0 0 0 0 0 0 0 0 0 0 0 0 0 0 0 0 0 0 0 0 0 0 0 0 0 0 0 0 0 0 0 0
-0 -0 -0 -0 -0 0 0 -0 -0 -0 -0 -0 -0 0 0 0 0 0 0 0 0 0 0 0 0 0 0 0 0 0 0 0 0 0 0 0 0 0 0 0 0 0 0 0 0 0 0
-0 -0 -0 -0 -0 0 -0 -0 -0 -0 -0 -0 -0 0 0 0 0 0 0 0 0 0 0 0 0 0 0 0 0 0 0 0 0 0 0 -0 0 0 0 0 0 0 0 0 0 0 0
-0 -0 0 0 0 0 0 0 -0 -0 -0 -0 -0 0 0 0 0 0 0 0 0 0 0 0 0 0 0 0 0 0 0 0 0 0 0 0 0 0 0 0 0 0 0 0 0 0 0
0 0 -0 0 0 0 0 0 -0 -0 -0 -0 0 0 0 0 0 0 0 0 0 0 0 0 0 0 0 0 0 0 0 0 0 0 -0 0 0 0 0 0 0 0 0 0 0 0 0
0 0 0 0 0 0 -0 -0 -0 -0 -0 -0 0 0 0 0 0 0 0 -0 0 0 0 0 0 0 0 0 0 0 0 0 0 0 0 0 0 0 0 0 0 0 0 0 0 0 0
0 0 0 0 0 0 0 0 0 0 0 0 0 0 0 0 0 0 0 -0 -0 0 0 0 0 0 0 0 0 0 0 0 0 0 0 0 0 0 0 0 0 0 0 0 0 0 0
0 0 0 0 0 0 0 0 0 0 0 0 0 0 0 0 0 0 0 0 0 0 0 0 0 0 0 0 0 0 0 0 0 0 0 0 0 0 0 0 0 0 0 0 0 0 0
0 0 0 0 0 0 0 0 0 0 0 0 0 0 0 0 0 0 0 0 0 0 0 0 0 0 0 0 0 0 0 0 0 0 0 0 0 0 0 0 0 0 0 0 0 0 0
0 0 0 0 0 0 0 0 0 0 0 0 0 0 0 0 0 0 0 0 0 0 0 0 0 0 0 0 0 0 0 0 0 0 0 0 0 0 0 0 0 0 0 0 0 0 0
0 0 0 0 0 0 0 0 0 0 0 0 0 0 0 0 0 0 0 0 0 0 0 0 0 0 0 0 0 0 0 0 0 0 0 0 0 0 0 0 0 0 0 0 0 0 0
0 0 0 0 0 0 0 0 0 0 0 0 0 0 0 0 0 0 0 0 0 0 0 0 0 0 0 0 0 0 0 0 0 0 0 0 0 0 0 0 0 0 0 0 0 0 0
0 0 0 0 0 0 0 0 0 0 0 0 0 0 0 0 0 0 0 0 0 0 0 0 0 0 0 0 0 0 0 0 0 0 0 0 0 0 0 0 0 0 0 0 0 0 0
0 0 0 0 0 0 0 0 0 0 0 0 0 0 0 0 0 0 0 0 0 0 0 0 0 0 0 0 0 0 0 0 0 0 0 0 0 0 0 0 0 0 0 0 0 0 0
0 0 0 0 0 0 0 0 0 0 0 0 0 0 0 0 0 0 0 0 -0 0 0 0 0 0 0 0 0 0 0 0 0 0 0 0 0 0 0 0 0 0 0 0 0 0 0
0 0 0 0 0 0 0 0 0 0 0 0 0 0 0 0 0 0 0 0 0 0 0 0 0 0 0 0 0 0 0 0 0 0 0 0 0 0 0 0 0 0 0 0 0 0 0
0 0 0 0 0 0 0 0 0 0 0 0 0 0 0 0 0 0 0 0 0 0 0 0 0 0 0 0 0 0 0 0 0 0 0 0 0 0 0 0 0 0 0 0 0 0 0
0 0 0 0 0 0 0 0 0 0 0 0 0 0 0 0 0 0 0 0 0 0 0 0 0 0 0 0 0 0 0 0 0 0 0 0 0 0 0 0 0 0 0 0 0 0 0
0 0 0 0 0 0 0 0 0 0 0 0 0 0 0 0 0 0 0 0 0 0 0 0 0 0 0 0 0 0 0 0 0 0 0 0 0 0 0 0 0 0 0 0 0 0 0
Wind_Speed_500mb
61 63 66 68 71 72 74 76 78 80 81 81 75 62 46 36 33 35 32 26 26 27 26 17 13 11 7 9 17 26 22 24 24 23 24 20 17 8 4 9 23 5 5 31 47 35 40
61 64 66 68 70 73 75 77 79 82 82 83 79 61 40 32 30 31 29 25 25 29 25 21 16 14 10 12 23 17 15 15 10 15 14 18 11 18 2 5 2 13 18 34 25 42 32
60 62 64 67 70 72 75 78 80 82 83 84 83 60 36 30 26 25 28 27 31 25 18 20 19 16 14 13 15 1 7 12 14 12 16 15 18 18 18 13 10 24 15 18 19 19 11
59 62 64 67 70 73 75 78 79 81 84 84 84 58 34 30 26 25 27 25 32 9 17 20 16 12 12 9 5 7 4 3 9 11 7 11 15 21 9 13 16 12 7 9 12 12 22
58 60 63 66 69 72 75 77 79 82 84 84 83 56 33 27 23 24 31 20 19 17 38 15 11 11 9 8 19 10 11 10 11 15 7 13 18 6 2 5 10 10 11 13 21 9 13
57 60 63 65 68 71 74 77 80 82 84 85 81 51 37 33 15 22 37 19 13 7 33 10 15 7 4 12 20 17 18 20 18 16 15 9 2 4 6 7 9 17 14 15 24 22 30
57 60 63 66 69 72 74 77 80 83 84 86 82 46 43 29 17 24 39 6 19 5 18 8 12 7 11 19 18 13 15 28 25 18 6 13 5 12 23 13 15 13 18 25 28 30 11
57 61 64 67 70 72 75 77 79 82 85 87 83 41 42 17 22 29 36 30 21 11 14 15 9 14 24 19 16 23 6 10 7 11 3 7 11 22 12 14 15 13 18 27 36 20 11
57 60 63 66 68 70 73 75 77 82 85 88 75 42 41 13 18 36 39 32 17 15 1 11 16 33 24 22 12 18 36 26 20 8 15 16 16 4 10 16 23 23 18 29 36 32 10
57 60 62 65 68 69 72 74 75 78 82 85 64 49 40 34 16 41 37 28 10 11 9 17 19 20 38 27 4 25 41 12 7 12 10 11 9 6 17 13 15 23 23 28 25 21 27
57 60 63 65 67 69 71 72 72 74 78 79 56 44 42 45 39 42 42 21 3 4 8 18 12 16 32 36 19 34 43 20 8 10 2 14 5 13 15 15 9 11 20 14 22 24 14
58 62 65 66 67 68 70 69 68 69 74 73 55 25 47 48 48 48 50 3 14 11 2 11 9 16 13 27 13 28 39 30 4 7 8 10 21 11 12 6 2 14 11 16 4 2 12
62 65 67 68 68 68 68 67 64 65 70 70 51 18 43 47 49 38 36 10 10 12 8 12 9 12 6 15 11 13 22 13 9 12 10 12 8 5 12 10 14 26 11 9 7 2 16
60 64 67 68 67 66 66 64 61 62 68 67 48 17 44 43 33 27 30 10 16 5 5 9 9 14 6 15 11 12 15 10 10 5 7 9 12 9 18 8 12 21 9 7 10 8 13
63 66 68 66 63 62 61 61 60 61 66 66 44 11 48 38 32 28 8 12 10 8 7 6 14 4 5 9 7 12 10 2 4 4 4 9 11 23 42 27 4 7 7 11 18 30 20
66 69 69 66 63 58 55 54 57 58 62 62 47 6 42 43 25 18 13 6 6 8 6 4 2 2 9 11 8 11 7 2 9 11 10 7 20 12 5 23 20 13 6 6 5 10 13
65 66 65 62 60 58 55 50 56 57 58 57 36 5 32 43 21 23 8 4 7 9 7 7 7 8 11 9 4 5 9 13 8 6 14 6 12 14 17 10 14 7 5 9 7 8 10
64 63 60 57 56 54 53 51 52 57 57 53 28 6 33 47 18 8 4 9 14 10 11 6 6 8 10 7 8 9 12 14 15 2 10 8 8 14 26 45 32 23 20 8 6 10 10
60 58 57 55 54 52 50 47 43 49 53 55 32 12 21 34 7 7 14 9 6 7 9 4 6 9 3 5 6 10 15 20 25 12 7 10 7 11 13 8 9 4 9 16 14 8 35
55 54 52 52 51 49 48 45 39 36 39 37 18 9 13 14 8 6 7 9 10 19 11 25 17 7 9 8 13 15 19 10 12 20 38 19 9 19 24 36 24 39 37 36 30 14 30
50 50 50 51 52 50 47 43 37 30 25 20 15 4 5 8 5 8 8 5 8 8 9 28 8 11 10 6 12 13 13 21 25 42 10 12 12 17 32 42 44 48 53 46 38 27 14
46 46 47 48 49 49 47 43 38 28 18 12 10 10 10 20 21 8 5 2 4 9 7 12 8 22 12 12 17 33 30 26 12 9 9 2 8 9 35 37 34 43 41 21 13 19 25
44 44 44 45 45 45 45 41 35 25 18 11 13 12 12 12 6 3 6 1 12 21 22 16 16 13 11 18 33 67 62 64 26 13 7 6 4 6 17 18 31 12 4 7 16 23 29
43 43 43 43 44 43 42 39 33 27 19 11 11 13 7 8 4 7 14 36 20 18 14 46 37 9 17 55 69 38 25 24 23 25 28 6 5 6 12 14 8 7 9 4 23 34 30
39 39 39 40 41 42 41 40 33 24 26 20 16 10 8 8 12 31 17 7 43 40 15 26 20 24 44 31 11 14 10 11 4 3 6 21 3 7 8 5 24 6 4 13 23 55 6
37 36 35 37 39 39 38 36 35 27 25 27 17 20 18 11 10 21 22 28 8 10 10 9 36 25 19 5 6 7 6 8 10 17 5 6 7 6 5 8 9 3 7 46 24 14 23
37 37 37 37 36 38 37 34 32 30 26 28 22 23 20 17 43 18 10 9 20 12 7 16 18 16 12 6 5 4 7 5 6 9 7 9 5 11 10 9 14 8 29 31 8 13 65
35 37 37 37 37 37 38 37 34 30 27 29 32 26 28 21 68 74 58 45 25 13 6 25 23 5 5 5 3 3 4 7 6 9 6 6 7 5 5 6 12 30 12 12 13 56 57
34 37 37 37 37 36 36 38 37 34 30 29 39 29 32 36 60 82 85 82 80 79 57 18 12 7 11 5 5 3 5 5 6 8 5 7 8 6 9 9 18 48 35 35 52 57 60
Wind_Direction_500mb
31 29 27 25 23 22 20 19 18 17 16 15 11 8 8 12 12 9 13 19 23 19 14 10 4 9 43 89 110 68 82 73 63 51 30 13 48 33 9 318 337 215 324 325 314 306 304
28 26 24 22 21 19 17 16 15 14 13 13 11 11 16 17 14 14 14 13 7 1 7 19 27 30 63 80 119 80 70 56 43 22 20 15 346 346 178 306 164 303 295 295 299 297 285
25 23 21 19 18 16 15 13 12 11 11 11 10 10 20 22 19 23 11 4 346 336 2 15 19 22 82 109 149 74 32 13 356 317 309 340 330 324 322 322 323 307 324 321 293 289 285
21 20 17 16 14 13 12 10 10 9 9 8 9 10 19 21 30 30 15 359 355 14 30 356 9 35 88 87 14 311 214 149 338 337 308 306 295 310 270 287 338 350 13 346 279 322 287
18 16 14 12 11 9 8 7 8 7 7 7 7 10 16 15 31 28 11 360 36 91 14 20 49 34 89 77 13 340 246 277 315 347 321 316 311 283 285 58 356 355 271 278 304 264 270
14 12 10 9 8 6 6 5 6 6 5 5 4 8 3 357 26 24 14 21 57 15 357 44 36 48 67 332 343 342 255 260 290 304 293 271 328 53 24 79 269 278 273 267 277 293 296
11 9 7 5 5 4 4 5 4 4 4 3 1 7 6 4 32 18 17 71 25 11 17 13 322 318 357 346 346 335 278 250 261 270 252 312 54 260 258 230 226 252 270 263 276 280 270
6 5 4 3 2 2 2 3 2 2 3 3 360 12 10 32 35 16 27 47 23 354 325 15 41 17 28 334 305 342 318 244 224 238 107 350 253 258 244 252 253 255 268 282 282 253 241
2 1 1 360 0 0 1 2 1 359 1 3 2 17 19 18 12 25 31 22 10 352 93 349 48 27 10 339 278 356 1 317 224 233 240 217 242 243 272 291 294 287 271 288 276 297 265
358 359 359 358 358 359 359 360 360 357 359 3 5 18 23 33 21 13 19 13 8 7 70 352 358 22 6 352 358 356 5 329 328 231 241 230 277 337 313 283 267 280 272 282 286 293 286
355 356 355 355 354 354 355 356 358 356 356 2 5 29 26 25 14 6 349 335 277 5 68 330 0 349 358 29 319 347 3 343 322 285 27 261 304 312 276 256 306 268 310 297 282 264 283
350 349 348 348 347 347 350 352 355 354 353 359 358 17 15 10 6 354 352 14 133 48 81 335 330 329 359 4 4 345 356 358 311 333 347 248 258 226 218 277 104 289 323 299 307 131 252
344 344 343 342 342 343 345 348 352 352 351 354 357 18 9 1 349 350 354 132 42 79 338 321 300 329 310 356 341 5 348 11 17 0 340 315 293 295 57 339 323 345 7 315 301 243 249
342 342 342 340 339 340 341 344 349 351 349 350 358 35 16 6 357 356 347 64 70 265 246 254 282 317 8 13 321 334 346 345 32 32 279 338 321 7 338 311 273 280 186 206 274 268 280
340 342 342 342 342 340 340 342 347 351 349 349 360 53 15 2 9 354 21 54 175 226 237 274 324 325 291 321 261 356 321 266 67 33 74 316 254 307 300 293 113 311 281 227 273 271 265
339 340 340 341 343 344 341 343 345 350 349 350 354 284 12 8 354 357 67 143 211 228 260 160 343 299 291 306 339 6 313 238 182 187 144 280 294 276 331 325 281 188 249 333 316 279 270
337 338 338 339 341 344 348 347 346 349 352 353 357 18 354 352 329 47 93 257 297 335 305 182 226 267 253 306 246 261 252 292 203 225 190 230 218 277 321 218 256 260 247 238 218 237 288
333 335 336 337 340 342 342 348 346 349 357 360 360 20 354 3 47 34 30 305 309 302 318 275 227 232 235 279 273 245 235 216 239 224 285 209 260 276 274 274 274 245 251 241 244 253 251
331 333 334 336 338 340 340 341 344 346 356 357 345 321 355 22 65 348 317 303 278 316 299 321 272 239 235 256 337 224 241 249 259 184 236 169 240 292 298 351 48 16 227 213 239 245 263
329 332 334 335 337 340 340 340 344 341 353 357 353 357 344 28 64 97 343 285 315 323 304 348 272 291 349 292 214 272 271 295 295 246 277 248 220 232 261 267 282 283 268 267 267 267 281
328 331 333 336 338 339 339 340 344 347 358 7 13 356 2 310 326 328 197 257 305 334 306 321 317 347 292 281 291 245 258 297 295 285 266 178 259 237 252 268 275 273 276 279 274 277 275
328 330 334 336 338 338 338 340 342 338 1 16 11 356 317 290 290 312 328 284 285 303 245 288 293 306 273 221 220 286 302 296 240 312 188 161 271 281 287 267 265 271 274 271 283 306 276
328 332 334 336 338 339 339 342 342 342 3 347 335 325 290 283 288 330 243 206 303 308 300 268 310 288 280 262 284 284 279 272 242 237 202 234 264 289 288 339 306 296 123 110 298 279 293
326 331 335 338 338 340 340 344 347 345 344 327 308 328 298 275 253 234 275 301 281 276 257 287 291 257 287 311 310 302 281 274 240 238 213 235 213 267 290 337 321 200 127 246 287 290 294
326 331 336 339 340 340 342 344 347 353 344 333 309 295 263 274 258 288 273 272 317 305 270 275 300 314 313 318 345 339 348 359 48 114 183 212 172 310 282 218 278 186 23 326 321 311 13
326 329 333 336 340 340 342 341 344 343 341 335 307 292 241 285 247 244 312 300 283 307 318 263 310 313 321 46 40 11 296 322 316 331 115 192 239 196 291 285 278 22 309 325 311 275 4
321 326 328 327 331 335 339 336 336 332 330 321 310 302 257 256 281 272 227 275 298 272 258 304 335 313 346 33 38 338 300 309 285 295 296 301 288 256 259 260 275 12 349 325 23 302 326
317 321 324 326 326 329 331 332 329 324 323 315 302 286 282 258 280 279 282 267 261 216 247 298 329 266 36 64 98 307 237 274 306 270 241 268 310 260 258 271 293 351 352 347 290 315 309
313 316 321 324 323 325 326 325 325 322 314 307 302 294 289 259 272 285 284 279 273 274 271 246 248 199 187 128 223 235 271 287 283 283 212 271 202 270 215 244 294 305 308 313 322 306 308
Wind_Speed_850mb
61 63 66 68 71 72 74 76 78 80 81 81 75 62 46 36 33 35 32 26 26 27 26 17 13 11 7 9 17 26 22 24 24 23 24 20 17 8 4 9 23 5 5 31 47 35 40
61 64 66 68 70 73 75 77 79 82 82 83 79 61 40 32 30 31 29 25 25 29 25 21 16 14 10 12 23 17 15 15 10 15 14 18 11 18 2 5 2 13 18 34 25 42 32
60 62 64 67 70 72 75 78 80 82 83 84 83 60 36 30 26 25 28 27 31 25 18 20 19 16 14 13 15 1 7 12 14 12 16 15 18 18 18 13 10 24 15 18 19 19 11
59 62 64 67 70 73 75 78 79 81 84 84 84 58 34 30 26 25 27 25 32 9 17 20 16 12 12 9 5 7 4 3 9 11 7 11 15 21 9 13 16 12 7 9 12 12 22
58 60 63 66 69 72 75 77 79 82 84 84 83 56 33 27 23 24 31 20 19 17 38 15 11 11 9 8 19 10 11 10 11 15 7 13 18 6 2 5 10 10 11 13 21 9 13
57 60 63 65 68 71 74 77 80 82 84 85 81 51 37 33 15 22 37 19 13 7 33 10 15 7 4 12 20 17 18 20 18 16 15 9 2 4 6 7 9 17 14 15 24 22 30
57 60 63 66 69 72 74 77 80 83 84 86 82 46 43 29 17 24 39 6 19 5 18 8 12 7 11 19 18 13 15 28 25 18 6 13 5 12 23 13 15 13 18 25 28 30 11
57 61 64 67 70 72 75 77 79 82 85 87 83 41 42 17 22 29 36 30 21 11 14 15 9 14 24 19 16 23 6 10 7 11 3 7 11 22 12 14 15 13 18 27 36 20 11
57 60 63 66 68 70 73 75 77 82 85 88 75 42 41 13 18 36 39 32 17 15 1 11 16 33 24 22 12 18 36 26 20 8 15 16 16 4 10 16 23 23 18 29 36 32 10
57 60 62 65 68 69 72 74 75 78 82 85 64 49 40 34 16 41 37 28 10 11 9 17 19 20 38 27 4 25 41 12 7 12 10 11 9 6 17 13 15 23 23 28 25 21 27
57 60 63 65 67 69 71 72 72 74 78 79 56 44 42 45 39 42 42 21 3 4 8 18 12 16 32 36 19 34 43 20 8 10 2 14 5 13 15 15 9 11 20 14 22 24 14
58 62 65 66 67 68 70 69 68 69 74 73 55 25 47 48 48 48 50 3 14 11 2 11 9 16 13 27 13 28 39 30 4 7 8 10 21 11 12 6 2 14 11 16 4 2 12
62 65 67 68 68 68 68 67 64 65 70 70 51 18 43 47 49 38 36 10 10 12 8 12 9 12 6 15 11 13 22 13 9 12 10 12 8 5 12 10 14 26 11 9 7 2 16
60 64 67 68 67 66 66 64 61 62 68 67 48 17 44 43 33 27 30 10 16 5 5 9 9 14 6 15 11 12 15 10 10 5 7 9 12 9 18 8 12 21 9 7 10 8 13
63 66 68 66 63 62 61 61 60 61 66 66 44 11 48 38 32 28 8 12 10 8 7 6 14 4 5 9 7 12 10 2 4 4 4 9 11 23 42 27 4 7 7 11 18 30 20
66 69 69 66 63 58 55 54 57 58 62 62 47 6 42 43 25 18 13 6 6 8 6 4 2 2 9 11 8 11 7 2 9 11 10 7 20 12 5 23 20 13 6 6 5 10 13
65 66 65 62 60 58 55 50 56 57 58 57 36 5 32 43 21 23 8 4 7 9 7 7 7 8 11 9 4 5 9 13 8 6 14 6 12 14 17 10 14 7 5 9 7 8 10
64 63 60 57 56 54 53 51 52 57 57 53 28 6 33 47 18 8 4 9 14 10 11 6 6 8 10 7 8 9 12 14 15 2 10 8 8 14 26 45 32 23 20 8 6 10 10
60 58 57 55 54 52 50 47 43 49 53 55 32 12 21 34 7 7 14 9 6 7 9 4 6 9 3 5 6 10 15 20 25 12 7 10 7 11 13 8 9 4 9 16 14 8 35
55 54 52 52 51 49 48 45 39 36 39 37 18 9 13 14 8 6 7 9 10 19 11 25 17 7 9 8 13 15 19 10 12 20 38 19 9 19 24 36 24 39 37 36 30 14 30
50 50 50 51 52 50 47 43 37 30 25 20 15 4 5 8 5 8 8 5 8 8 9 28 8 11 10 6 12 13 13 21 25 42 10 12 12 17 32 42 44 48 53 46 38 27 14
46 46 47 48 49 49 47 43 38 28 18 12 10 10 10 20 21 8 5 2 4 9 7 12 8 22 12 12 17 33 30 26 12 9 9 2 8 9 35 37 34 43 41 21 13 19 25
44 44 44 45 45 45 45 41 35 25 18 11 13 12 12 12 6 3 6 1 12 21 22 16 16 13 11 18 33 67 62 64 26 13 7 6 4 6 17 18 31 12 4 7 16 23 29
43 43 43 43 44 43 42 39 33 27 19 11 11 13 7 8 4 7 14 36 20 18 14 46 37 9 17 55 69 38 25 24 23 25 28 6 5 6 12 14 8 7 9 4 23 34 30
39 39 39 40 41 42 41 40 33 24 26 20 16 10 8 8 12 31 17 7 43 40 15 26 20 24 44 31 11 14 10 11 4 3 6 21 3 7 8 5 24 6 4 13 23 55 6
37 36 35 37 39 39 38 36 35 27 25 27 17 20 18 11 10 21 22 28 8 10 10 9 36 25 19 5 6 7 6 8 10 17 5 6 7 6 5 8 9 3 7 46 24 14 23
37 37 37 37 36 38 37 34 32 30 26 28 22 23 20 17 43 18 10 9 20 12 7 16 18 16 12 6 5 4 7 5 6 9 7 9 5 11 10 9 14 8 29 31 8 13 65
35 37 37 37 37 37 38 37 34 30 27 29 32 26 28 21 68 74 58 45 25 13 6 25 23 5 5 5 3 3 4 7 6 9 6 6 7 5 5 6 12 30 12 12 13 56 57
34 37 37 37 37 36 36 38 37 34 30 29 39 29 32 36 60 82 85 82 80 79 57 18 12 7 11 5 5 3 5 5 6 8 5 7 8 6 9 9 18 48 35 35 52 57 60
Wind_Direction_850mb
31 29 27 25 23 22 20 19 18 17 16 15 11 8 8 12 12 9 13 19 23 19 14 10 4 9 43 89 110 68 82 73 63 51 30 13 48 33 9 318 337 215 324 325 314 306 304
28 26 24 22 21 19 17 16 15 14 13 13 11 11 16 17 14 14 14 13 7 1 7 19 27 30 63 80 119 80 70 56 43 22 20 15 346 346 178 306 164 303 295 295 299 297 285
25 23 21 19 18 16 15 13 12 11 11 11 10 10 20 22 19 23 11 4 346 336 2 15 19 22 82 109 149 74 32 13 356 317 309 340 330 324 322 322 323 307 324 321 293 289 285
21 20 17 16 14 13 12 10 10 9 9 8 9 10 19 21 30 30 15 359 355 14 30 356 9 35 88 87 14 311 214 149 338 337 308 306 295 310 270 287 338 350 13 346 279 322 287
18 16 14 12 11 9 8 7 8 7 7 7 7 10 16 15 31 28 11 360 36 91 14 20 49 34 89 77 13 340 246 277 315 347 321 316 311 283 285 58 356 355 271 278 304 264 270
14 12 10 9 8 6 6 5 6 6 5 5 4 8 3 357 26 24 14 21 57 15 357 44 36 48 67 332 343 342 255 260 290 304 293 271 328 53 24 79 269 278 273 267 277 293 296
11 9 7 5 5 4 4 5 4 4 4 3 1 7 6 4 32 18 17 71 25 11 17 13 322 318 357 346 346 335 278 250 261 270 252 312 54 260 258 230 226 252 270 263 276 280 270
6 5 4 3 2 2 2 3 2 2 3 3 360 12 10 32 35 16 27 47 23 354 325 15 41 17 28 334 305 342 318 244 224 238 107 350 253 258 244 252 253 255 268 282 282 253 241
2 1 1 360 0 0 1 2 1 359 1 3 2 17 19 18 12 25 31 22 10 352 93 349 48 27 10 339 278 356 1 317 224 233 240 217 242 243 272 291 294 287 271 288 276 297 265
358 359 359 358 358 359 359 360 360 357 359 3 5 18 23 33 21 13 19 13 8 7 70 352 358 22 6 352 358 356 5 329 328 231 241 230 277 337 313 283 267 280 272 282 286 293 286
355 356 355 355 354 354 355 356 358 356 356 2 5 29 26 25 14 6 349 335 277 5 68 330 0 349 358 29 319 347 3 343 322 285 27 261 304 312 276 256 306 268 310 297 282 264 283
350 349 348 348 347 347 350 352 355 354 353 359 358 17 15 10 6 354 352 14 133 48 81 335 330 329 359 4 4 345 356 358 311 333 347 248 258 226 218 277 104 289 323 299 307 131 252
344 344 343 342 342 343 345 348 352 352 351 354 357 18 9 1 349 350 354 132 42 79 338 321 300 329 310 356 341 5 348 11 17 0 340 315 293 295 57 339 323 345 7 315 301 243 249
342 342 342 340 339 340 341 344 349 351 349 350 358 35 16 6 357 356 347 64 70 265 246 254 282 317 8 13 321 334 346 345 32 32 279 338 321 7 338 311 273 280 186 206 274 268 280
340 342 342 342 342 340 340 342 347 351 349 349 360 53 15 2 9 354 21 54 175 226 237 274 324 325 291 321 261 356 321 266 67 33 74 316 254 307 300 293 113 311 281 227 273 271 265
339 340 340 341 343 344 341 343 345 350 349 350 354 284 12 8 354 357 67 143 211 228 260 160 343 299 291 306 339 6 313 238 182 187 144 280 294 276 331 325 281 188 249 333 316 279 270
337 338 338 339 341 344 348 347 346 349 352 353 357 18 354 352 329 47 93 257 297 335 305 182 226 267 253 306 246 261 252 292 203 225 190 230 218 277 321 218 256 260 247 238 218 237 288
333 335 336 337 340 342 342 348 346 349 357 360 360 20 354 3 47 34 30 305 309 302 318 275 227 232 235 279 273 245 235 216 239 224 285 209 260 276 274 274 274 245 251 241 244 253 251
331 333 334 336 338 340 340 341 344 346 356 357 345 321 355 22 65 348 317 303 278 316 299 321 272 239 235 256 337 224 241 249 259 184 236 169 240 292 298 351 48 16 227 213 239 245 263
329 332 334 335 337 340 340 340 344 341 353 357 353 357 344 28 64 97 343 285 315 323 304 348 272 291 349 292 214 272 271 295 295 246 277 248 220 232 261 267 282 283 268 267 267 267 281
328 331 333 336 338 339 339 340 344 347 358 7 13 356 2 310 326 328 197 257 305 334 306 321 317 347 292 281 291 245 258 297 295 285 266 178 259 237 252 268 275 273 276 279 274 277 275
328 330 334 336 338 338 338 340 342 338 1 16 11 356 317 290 290 312 328 284 285 303 245 288 293 306 273 221 220 286 302 296 240 312 188 161 271 281 287 267 265 271 274 271 283 306 276
328 332 334 336 338 339 339 342 342 342 3 347 335 325 290 283 288 330 243 206 303 308 300 268 310 288 280 262 284 284 279 272 242 237 202 234 264 289 288 339 306 296 123 110 298 279 293
326 331 335 338 338 340 340 344 347 345 344 327 308 328 298 275 253 234 275 301 281 276 257 287 291 257 287 311 310 302 281 274 240 238 213 235 213 267 290 337 321 200 127 246 287 290 294
326 331 336 339 340 340 342 344 347 353 344 333 309 295 263 274 258 288 273 272 317 305 270 275 300 314 313 318 345 339 348 359 48 114 183 212 172 310 282 218 278 186 23 326 321 311 13
326 329 333 336 340 340 342 341 344 343 341 335 307 292 241 285 247 244 312 300 283 307 318 263 310 313 321 46 40 11 296 322 316 331 115 192 239 196 291 285 278 22 309 325 311 275 4
321 326 328 327 331 335 339 336 336 332 330 321 310 302 257 256 281 272 227 275 298 272 258 304 335 313 346 33 38 338 300 309 285 295 296 301 288 256 259 260 275 12 349 325 23 302 326
317 321 324 326 326 329 331 332 329 324 323 315 302 286 282 258 280 279 282 267 261 216 247 298 329 266 36 64 98 307 237 274 306 270 241 268 310 260 258 271 293 351 352 347 290 315 309
313 316 321 324 323 325 326 325 325 322 314 307 302 294 289 259 272 285 284 279 273 274 271 246 248 199 187 128 223 235 271 287 283 283 212 271 202 270 215 244 294 305 308 313 322 306 308